Location: Newark
(41.9000°N, 12.4833°E)
Time: 01:25:37
(UTC+00:00)

EO-88 - Pass Details

Date: 29 May 2019
Orbit: 484 x 494 km, 97.4° (Epoch: 24 June)

Event Time Altitude Azimuth Distance (km) Brightness Sun altitude
Exits shadow 21:28:41 22° 248° (WSW) 1,132 ? -22.4°
Maximum altitude 21:29:20 23° 265° (W) 1,097 ? -22.5°
Drops below altitude 10° 21:32:18 10° 319° (NW) 1,699 ? -22.7°
Sets 21:34:42 0° 334° (NNW) 2,587 ? -22.9°
